Location: Great Malvern
(52.1167°N, 2.3167°W)
Time: 00:23:18
(UTC+00:00)

SL-08 RB Rocket - Pass Details

Date: 18 September 2020
Orbit: 646 x 685 km, 97.8° (Epoch: 23 October)

Event Time Altitude Azimuth Distance (km) Brightness Sun altitude
Exits shadow 19:32:44 - 165° (SSE) 3,028 6.8 -12.4°
Rises 19:32:45 0° 165° (SSE) 3,018 6.8 -12.4°
Reaches altitude 10° 19:34:59 10° 166° (SSE) 2,102 6.0 -12.7°
Maximum altitude 19:39:36 86° 255° (WSW) 678 3.7 -13.3°
Drops below altitude 10° 19:44:11 10° 345° (NNW) 2,095 6.8 -14.0°
Sets 19:46:25 0° 346° (NNW) 3,006 7.6 -14.3°
